Location: Arleux
(50.3632°N, 2.8721°E)
Time: 08:40:35
(UTC+00:00)

Meteor 2-4 Rocket - Pass Details

Date: 15 December 2019
Orbit: 798 x 909 km, 81.2° (Epoch: 26 January)

Event Time Altitude Azimuth Distance (km) Brightness Sun altitude
Exits shadow 05:16:19 18° 345° (NNW) 1,916 5.3 -21.9°
Maximum altitude 05:20:27 80° 261° (W) 831 3.5 -21.3°
Drops below altitude 10° 05:25:48 10° 175° (S) 2,374 6.2 -20.4°
Sets 05:28:09 0° 174° (S) 3,295 7.0 -20.1°
